M I D A S
Marine Information and Data Acquisition System
Tripno 2138 of the Zeeleeuw from 2010-04-22 08:00:00 to 2010-04-22 17:00:00
Back to CruiseResearch ActivitiesStationsMapUnderway DataData graphs

EquipmentUnitsComments
TimeDGPSUTC
LatitudeDGPSDM.mWGS84
LongitudeDGPSDM.mWGS84
SpeedMeteo Stationm/sRelative wind speed
DirectionMeteo StationdegRelative wind direction
TemperatureMeteo Stationdeg CelciusAir temperature
PressureMeteo StationPaAtmospheric pressure
HumidityMeteo Station%Relative humidity
Missing or incorrect values are displayed as -999
Metereological data collected by the RV Zeeleeuw from 2010-04-22 08:00:00 to 2010-04-22 17:00:00
                                                                                    Next 1000 lines
Time Latitude Longitude Speed Direction Temperature Pressure Humidity
2010-04-22 08:00:07 51°31.385 2°52.648 -999 264 6.6 101990 31
2010-04-22 08:00:12 51°31.386 2°52.649 -999 282 6.6 102000 31
2010-04-22 08:00:17 51°31.387 2°52.65 -999 37 6.6 102000 31
2010-04-22 08:00:22 51°31.388 2°52.651 -999 267 6.6 102000 30
2010-04-22 08:00:27 51°31.389 2°52.652 -999 265 6.6 102000 30
2010-04-22 08:00:32 51°31.389 2°52.653 -999 270 6.6 101990 30
2010-04-22 08:00:37 51°31.39 2°52.654 -999 270 6.6 101990 30
2010-04-22 08:00:42 51°31.39 2°52.655 -999 269 6.6 102000 31
2010-04-22 08:00:47 51°31.391 2°52.656 -999 270 6.6 102000 31
2010-04-22 08:00:52 51°31.391 2°52.657 -999 26 6.6 101990 31
2010-04-22 08:00:57 51°31.391 2°52.659 -999 34 6.6 101990 31
2010-04-22 08:01:02 51°31.391 2°52.66 -999 23 6.6 102000 31
2010-04-22 08:01:07 51°31.39 2°52.661 -999 35 6.6 102000 31
2010-04-22 08:01:12 51°31.39 2°52.663 -999 269 6.6 101990 31
2010-04-22 08:01:17 51°31.39 2°52.664 -999 35 6.6 101990 31
2010-04-22 08:01:22 51°31.389 2°52.665 -999 23 6.6 101990 31
2010-04-22 08:01:27 51°31.389 2°52.667 -999 34 6.6 101990 31
2010-04-22 08:01:32 51°31.388 2°52.668 -999 23 6.6 102000 31
2010-04-22 08:01:37 51°31.388 2°52.669 -999 35 6.6 102000 31
2010-04-22 08:01:42 51°31.387 2°52.671 -999 23 6.6 102000 31
2010-04-22 08:01:47 51°31.386 2°52.672 -999 34 6.6 102000 31
2010-04-22 08:01:52 51°31.386 2°52.673 -999 23 6.6 102000 31
2010-04-22 08:01:57 51°31.385 2°52.674 -999 34 6.6 102000 31
2010-04-22 08:02:02 51°31.384 2°52.676 -999 23 6.7 102000 30
2010-04-22 08:02:07 51°31.383 2°52.677 -999 34 6.7 102000 30
2010-04-22 08:02:12 51°31.382 2°52.678 -999 77 6.7 102000 31
2010-04-22 08:02:17 51°31.382 2°52.679 -999 34 6.7 102000 31
2010-04-22 08:02:22 51°31.381 2°52.68 -999 23 6.7 102000 31
2010-04-22 08:02:27 51°31.38 2°52.681 -999 269 6.7 102000 31
2010-04-22 08:02:32 51°31.379 2°52.683 -999 78 6.6 101990 31
2010-04-22 08:02:37 51°31.379 2°52.684 -999 267 6.6 101990 31
2010-04-22 08:02:42 51°31.378 2°52.685 -999 267 6.6 101990 31
2010-04-22 08:02:47 51°31.377 2°52.686 -999 34 6.6 101990 31
2010-04-22 08:02:52 51°31.376 2°52.686 -999 23 6.7 101990 31
2010-04-22 08:02:57 51°31.376 2°52.688 -999 34 6.7 101990 31
2010-04-22 08:03:02 51°31.375 2°52.688 -999 23 6.6 102000 31
2010-04-22 08:03:07 51°31.374 2°52.688 -999 34 6.6 102000 31
2010-04-22 08:03:12 51°31.374 2°52.689 -999 23 6.6 101990 31
2010-04-22 08:03:17 51°31.373 2°52.689 -999 35 6.6 101990 31
2010-04-22 08:03:22 51°31.372 2°52.69 -999 23 6.7 102000 31
2010-04-22 08:03:27 51°31.372 2°52.691 -999 34 6.7 102000 31
2010-04-22 08:03:32 51°31.371 2°52.691 -999 23 6.7 101990 31
2010-04-22 08:03:37 51°31.371 2°52.691 -999 34 6.7 101990 31
2010-04-22 08:03:42 51°31.37 2°52.691 -999 78 6.7 102000 31
2010-04-22 08:03:47 51°31.37 2°52.691 -999 34 6.7 102000 31
2010-04-22 08:03:52 51°31.369 2°52.691 -999 38 6.7 102000 31
2010-04-22 08:03:57 51°31.369 2°52.691 -999 34 6.7 102000 31
2010-04-22 08:04:02 51°31.368 2°52.691 -999 28 6.7 102000 31
2010-04-22 08:04:07 51°31.368 2°52.69 -999 33 6.7 102000 31
2010-04-22 08:04:12 51°31.368 2°52.691 -999 35 6.7 101990 31
2010-04-22 08:04:17 51°31.368 2°52.69 -999 35 6.7 101990 31
2010-04-22 08:04:22 51°31.367 2°52.691 -999 23 6.7 102000 31
2010-04-22 08:04:27 51°31.367 2°52.69 -999 36 6.7 102000 31
2010-04-22 08:04:32 51°31.367 2°52.691 -999 36 6.7 101990 31
2010-04-22 08:04:37 51°31.367 2°52.69 -999 35 6.7 101990 31
2010-04-22 08:04:42 51°31.366 2°52.691 -999 33 6.7 102000 29
2010-04-22 08:04:47 51°31.367 2°52.69 -999 28 6.7 102000 29
2010-04-22 08:04:52 51°31.366 2°52.691 -999 30 6.7 102010 31
2010-04-22 08:04:57 51°31.367 2°52.69 -999 35 6.7 102010 31
2010-04-22 08:05:02 51°31.366 2°52.69 -999 33 6.7 101990 30
2010-04-22 08:05:07 51°31.366 2°52.689 -999 38 6.7 101990 30
2010-04-22 08:05:12 51°31.366 2°52.689 -999 23 6.7 101990 30
2010-04-22 08:05:17 51°31.367 2°52.689 -999 35 6.7 101990 30
2010-04-22 08:05:22 51°31.366 2°52.689 -999 23 6.7 101990 30
2010-04-22 08:05:27 51°31.367 2°52.689 -999 28 6.7 101990 30
2010-04-22 08:05:32 51°31.367 2°52.689 -999 27 6.7 101990 30
2010-04-22 08:05:37 51°31.367 2°52.689 -999 3 6.7 101990 30
2010-04-22 08:05:42 51°31.367 2°52.688 -999 41 6.7 101990 30
2010-04-22 08:05:47 51°31.367 2°52.689 -999 28 6.7 101990 30
2010-04-22 08:05:52 51°31.367 2°52.688 -999 23 6.7 102000 30
2010-04-22 08:05:57 51°31.367 2°52.689 -999 16 6.7 102000 30
2010-04-22 08:06:02 51°31.368 2°52.688 -999 26 6.7 102000 31
2010-04-22 08:06:07 51°31.368 2°52.688 -999 11 6.7 102000 31
2010-04-22 08:06:12 51°31.368 2°52.688 -999 21 6.7 101990 31
2010-04-22 08:06:17 51°31.368 2°52.688 -999 19 6.7 101990 31
2010-04-22 08:06:22 51°31.369 2°52.688 -999 25 6.7 101990 31
2010-04-22 08:06:27 51°31.369 2°52.688 -999 19 6.7 101990 31
2010-04-22 08:06:32 51°31.369 2°52.687 -999 32 6.7 101990 31
2010-04-22 08:06:37 51°31.37 2°52.688 -999 28 6.7 101990 31
2010-04-22 08:06:42 51°31.37 2°52.687 -999 28 6.7 102000 31
2010-04-22 08:06:47 51°31.37 2°52.688 -999 17 6.7 102000 31
2010-04-22 08:06:52 51°31.371 2°52.687 -999 26 6.7 102000 30
2010-04-22 08:06:57 51°31.371 2°52.688 -999 24 6.7 102000 30
2010-04-22 08:07:02 51°31.371 2°52.687 -999 21 6.7 101990 30
2010-04-22 08:07:07 51°31.371 2°52.688 -999 23 6.7 101990 30
2010-04-22 08:07:12 51°31.372 2°52.688 -999 25 6.7 102000 30
2010-04-22 08:07:17 51°31.372 2°52.688 -999 35 6.7 102000 30
2010-04-22 08:07:22 51°31.373 2°52.688 -999 16 6.7 101990 29
2010-04-22 08:07:27 51°31.373 2°52.688 -999 32 6.7 101990 29
2010-04-22 08:07:32 51°31.373 2°52.688 -999 27 6.7 101990 31
2010-04-22 08:07:37 51°31.374 2°52.688 -999 39 6.7 101990 31
2010-04-22 08:07:42 51°31.374 2°52.688 -999 36 6.7 101990 31
2010-04-22 08:07:47 51°31.375 2°52.688 -999 23 6.7 101990 31
2010-04-22 08:07:52 51°31.375 2°52.689 -999 26 6.7 101990 31
2010-04-22 08:07:57 51°31.375 2°52.689 -999 25 6.7 101990 31
2010-04-22 08:08:02 51°31.376 2°52.689 -999 26 6.7 101990 31
2010-04-22 08:08:07 51°31.376 2°52.689 -999 25 6.7 101990 31
2010-04-22 08:08:12 51°31.377 2°52.689 -999 31 6.7 102000 31
2010-04-22 08:08:17 51°31.377 2°52.689 -999 27 6.7 102000 31
2010-04-22 08:08:22 51°31.377 2°52.689 -999 24 6.7 102000 31
2010-04-22 08:08:27 51°31.378 2°52.689 -999 35 6.7 102000 31
2010-04-22 08:08:32 51°31.378 2°52.688 -999 25 6.7 101990 31
2010-04-22 08:08:37 51°31.378 2°52.689 -999 36 6.7 101990 31
2010-04-22 08:08:42 51°31.379 2°52.688 -999 31 6.7 101990 31
2010-04-22 08:08:47 51°31.379 2°52.688 -999 26 6.7 101990 31
2010-04-22 08:08:52 51°31.379 2°52.687 -999 42 6.7 101990 31
2010-04-22 08:08:57 51°31.379 2°52.686 -999 35 6.7 101990 31
2010-04-22 08:09:02 51°31.379 2°52.686 -999 23 6.7 101990 31
2010-04-22 08:09:07 51°31.379 2°52.685 -999 35 6.7 101990 31
2010-04-22 08:09:12 51°31.379 2°52.685 -999 78 6.7 101990 31
2010-04-22 08:09:17 51°31.379 2°52.685 -999 35 6.7 101990 31
2010-04-22 08:09:22 51°31.38 2°52.684 -999 33 6.7 101990 31
2010-04-22 08:09:27 51°31.379 2°52.684 -999 39 6.7 101990 31
2010-04-22 08:09:32 51°31.38 2°52.683 -999 39 6.7 102000 31
2010-04-22 08:09:37 51°31.38 2°52.682 -999 40 6.7 102000 31
2010-04-22 08:09:42 51°31.38 2°52.682 -999 37 6.7 102000 31
2010-04-22 08:09:47 51°31.38 2°52.681 -999 31 6.7 102000 31
2010-04-22 08:09:52 51°31.38 2°52.68 -999 33 6.7 101990 31
2010-04-22 08:09:57 51°31.38 2°52.68 -999 31 6.7 101990 31
2010-04-22 08:10:02 51°31.38 2°52.679 -999 23 6.7 101990 30
2010-04-22 08:10:07 51°31.38 2°52.679 -999 8 6.7 101990 30
2010-04-22 08:10:12 51°31.38 2°52.678 -999 33 6.7 102000 31
2010-04-22 08:10:17 51°31.38 2°52.678 -999 19 6.7 102000 31
2010-04-22 08:10:22 51°31.38 2°52.677 -999 24 6.7 101990 31
2010-04-22 08:10:27 51°31.38 2°52.676 -999 39 6.7 101990 31
2010-04-22 08:10:32 51°31.38 2°52.676 -999 40 6.7 102000 31
2010-04-22 08:10:37 51°31.381 2°52.675 -999 35 6.7 102000 31
2010-04-22 08:10:42 51°31.38 2°52.675 -999 41 6.7 102000 31
2010-04-22 08:10:47 51°31.381 2°52.674 -999 38 6.7 102000 31
2010-04-22 08:10:52 51°31.38 2°52.674 -999 45 6.7 101980 31
2010-04-22 08:10:57 51°31.381 2°52.673 -999 44 6.7 101980 31
2010-04-22 08:11:02 51°31.38 2°52.674 -999 23 6.7 101990 31
2010-04-22 08:11:07 51°31.381 2°52.673 -999 35 6.7 101990 31
2010-04-22 08:11:12 51°31.381 2°52.673 -999 78 6.7 101990 31
2010-04-22 08:11:17 51°31.381 2°52.672 -999 35 6.7 101990 31
2010-04-22 08:11:22 51°31.381 2°52.672 -999 45 6.7 101990 31
2010-04-22 08:11:27 51°31.381 2°52.672 -999 41 6.7 101990 31
2010-04-22 08:11:32 51°31.381 2°52.671 -999 36 6.7 102000 31
2010-04-22 08:11:37 51°31.381 2°52.671 1.5 36 6.7 102000 31
2010-04-22 08:11:42 51°31.381 2°52.671 1 28 6.7 101990 31
2010-04-22 08:11:47 51°31.382 2°52.67 1.1 39 6.7 101990 31
2010-04-22 08:11:52 51°31.381 2°52.67 0.7 40 6.7 102000 31
2010-04-22 08:11:57 51°31.382 2°52.67 1.1 39 6.7 102000 31
2010-04-22 08:12:02 51°31.381 2°52.67 0.7 44 6.7 101980 31
2010-04-22 08:12:07 51°31.382 2°52.67 0.1 38 6.7 101980 31
2010-04-22 08:12:12 51°31.382 2°52.67 0.1 25 6.7 101990 31
2010-04-22 08:12:17 51°31.382 2°52.669 -999 35 6.7 101990 31
2010-04-22 08:12:22 51°31.382 2°52.669 -999 23 6.7 102000 31
2010-04-22 08:12:27 51°31.382 2°52.669 -999 34 6.7 102000 31
2010-04-22 08:12:32 51°31.382 2°52.669 -999 23 6.7 102000 31
2010-04-22 08:12:37 51°31.382 2°52.669 0.1 35 6.7 102000 31
2010-04-22 08:12:42 51°31.382 2°52.669 0.1 23 6.7 101990 31
2010-04-22 08:12:47 51°31.382 2°52.669 -999 38 6.7 101990 31
2010-04-22 08:12:52 51°31.382 2°52.668 0.1 20 6.7 101980 32
2010-04-22 08:12:57 51°31.382 2°52.669 1.4 30 6.7 101980 32
2010-04-22 08:13:02 51°31.382 2°52.668 0.8 21 6.7 101990 32
2010-04-22 08:13:07 51°31.382 2°52.668 0.1 37 6.7 101990 32
2010-04-22 08:13:12 51°31.382 2°52.668 -999 78 6.7 102000 32
2010-04-22 08:13:17 51°31.383 2°52.668 -999 34 6.7 102000 32
2010-04-22 08:13:22 51°31.383 2°52.668 -999 23 6.7 101990 32
2010-04-22 08:13:27 51°31.383 2°52.668 0.1 39 6.7 101990 32
2010-04-22 08:13:32 51°31.383 2°52.668 0.1 78 6.7 101990 32
2010-04-22 08:13:37 51°31.383 2°52.668 0.1 34 6.7 101990 32
2010-04-22 08:13:42 51°31.383 2°52.668 0.1 23 6.8 101990 32
2010-04-22 08:13:47 51°31.383 2°52.668 -999 34 6.8 101990 32
2010-04-22 08:13:52 51°31.383 2°52.668 -999 23 6.8 101980 32
2010-04-22 08:13:57 51°31.383 2°52.668 1.8 35 6.8 101980 32
2010-04-22 08:14:02 51°31.383 2°52.668 2 18 6.8 102000 32
2010-04-22 08:14:07 51°31.383 2°52.668 1.5 33 6.8 102000 32
2010-04-22 08:14:12 51°31.383 2°52.668 1.5 22 6.8 101990 32
2010-04-22 08:14:17 51°31.383 2°52.669 1.4 30 6.8 101990 32
2010-04-22 08:14:22 51°31.383 2°52.669 1.1 27 6.8 101990 31
2010-04-22 08:14:27 51°31.383 2°52.669 1.1 32 6.8 101990 31
2010-04-22 08:14:32 51°31.383 2°52.669 1.3 27 6.8 101990 32
2010-04-22 08:14:37 51°31.383 2°52.669 2.1 38 6.8 101990 32
2010-04-22 08:14:42 51°31.383 2°52.67 1.2 75 6.8 101990 31
2010-04-22 08:14:47 51°31.383 2°52.669 0.7 34 6.8 101990 31
2010-04-22 08:14:52 51°31.383 2°52.669 0.3 23 6.8 101990 31
2010-04-22 08:14:57 51°31.383 2°52.669 0.1 37 6.8 101990 31
2010-04-22 08:15:02 51°31.383 2°52.669 0.1 24 6.8 102000 33
2010-04-22 08:15:07 51°31.383 2°52.669 -999 33 6.8 102000 33
2010-04-22 08:15:12 51°31.382 2°52.669 -999 23 6.8 101990 31
2010-04-22 08:15:17 51°31.382 2°52.669 -999 34 6.8 101990 31
2010-04-22 08:15:22 51°31.382 2°52.669 0.1 18 6.8 101990 31
2010-04-22 08:15:27 51°31.382 2°52.669 0.1 34 6.8 101990 31
2010-04-22 08:15:32 51°31.382 2°52.669 -999 77 6.9 102000 32
2010-04-22 08:15:37 51°31.382 2°52.669 -999 38 6.9 102000 32
2010-04-22 08:15:42 51°31.382 2°52.669 -999 25 6.9 101990 31
2010-04-22 08:15:47 51°31.381 2°52.669 0.3 32 6.9 101990 31
2010-04-22 08:15:52 51°31.381 2°52.669 1.6 73 6.9 101990 31
2010-04-22 08:15:57 51°31.381 2°52.669 1.6 33 6.9 101990 31
2010-04-22 08:16:02 51°31.381 2°52.669 1.3 27 6.9 101990 31
2010-04-22 08:16:07 51°31.381 2°52.669 1.4 39 6.9 101990 31
2010-04-22 08:16:12 51°31.381 2°52.669 1.3 20 6.9 101990 32
2010-04-22 08:16:17 51°31.381 2°52.67 1.2 37 6.9 101990 32
2010-04-22 08:16:22 51°31.381 2°52.67 1.1 24 7 101990 32
2010-04-22 08:16:27 51°31.381 2°52.67 1.4 31 7 101990 32
2010-04-22 08:16:32 51°31.381 2°52.67 1.3 21 7 101990 31
2010-04-22 08:16:37 51°31.381 2°52.67 1.3 31 7 101990 31
2010-04-22 08:16:42 51°31.381 2°52.67 1.3 25 7 101990 30
2010-04-22 08:16:47 51°31.381 2°52.67 0.8 31 7 101990 30
2010-04-22 08:16:52 51°31.381 2°52.67 1.5 25 7 101990 32
2010-04-22 08:16:57 51°31.381 2°52.67 1.3 31 7 101990 32
2010-04-22 08:17:02 51°31.381 2°52.67 1.3 20 7 101990 30
2010-04-22 08:17:07 51°31.381 2°52.671 1.3 36 7 101990 30
2010-04-22 08:17:12 51°31.381 2°52.67 1.5 24 7 101990 30
2010-04-22 08:17:17 51°31.381 2°52.671 1.6 38 7 101990 30
2010-04-22 08:17:22 51°31.381 2°52.669 1.3 28 7.1 101990 31
2010-04-22 08:17:27 51°31.381 2°52.67 1.4 30 7.1 101990 31
2010-04-22 08:17:32 51°31.381 2°52.67 1.8 20 7.1 102000 30
2010-04-22 08:17:37 51°31.381 2°52.67 1.3 30 7.1 102000 30
2010-04-22 08:17:42 51°31.381 2°52.67 1.7 26 7.1 101990 31
2010-04-22 08:17:47 51°31.381 2°52.67 0.2 32 7.1 101990 31
2010-04-22 08:17:52 51°31.382 2°52.67 0.3 21 7.1 101980 30
2010-04-22 08:17:57 51°31.382 2°52.67 0.4 32 7.1 101980 30
2010-04-22 08:18:02 51°31.382 2°52.67 0.2 22 7.1 101990 30
2010-04-22 08:18:07 51°31.382 2°52.67 0.1 39 7.1 101990 30
2010-04-22 08:18:12 51°31.382 2°52.67 0.1 78 7.1 101990 31
2010-04-22 08:18:17 51°31.383 2°52.67 1.2 37 7.1 101990 31
2010-04-22 08:18:22 51°31.382 2°52.67 0.7 25 7.1 101990 31
2010-04-22 08:18:27 51°31.383 2°52.67 0.3 39 7.1 101990 31
2010-04-22 08:18:32 51°31.383 2°52.67 0.1 25 7.1 101990 31
2010-04-22 08:18:37 51°31.383 2°52.67 1.4 37 7.1 101990 31
2010-04-22 08:18:42 51°31.383 2°52.671 1.4 21 7.1 101990 32
2010-04-22 08:18:47 51°31.383 2°52.671 1.2 39 7.1 101990 32
2010-04-22 08:18:52 51°31.383 2°52.671 1.7 20 7.1 101990 31
2010-04-22 08:18:57 51°31.383 2°52.672 1.1 37 7.1 101990 31
2010-04-22 08:19:02 51°31.383 2°52.671 1.2 25 7.1 101990 31
2010-04-22 08:19:07 51°31.383 2°52.672 0.1 34 7.1 101990 31
2010-04-22 08:19:12 51°31.383 2°52.671 0.7 22 7.1 101990 31
2010-04-22 08:19:17 51°31.383 2°52.672 2 39 7.1 101990 31
2010-04-22 08:19:22 51°31.383 2°52.672 2 20 7.1 101990 31
2010-04-22 08:19:27 51°31.383 2°52.672 1 34 7.1 101990 31
2010-04-22 08:19:32 51°31.383 2°52.672 1.1 23 7.2 101980 32
2010-04-22 08:19:37 51°31.383 2°52.672 0.2 31 7.2 101980 32
2010-04-22 08:19:42 51°31.383 2°52.672 0.2 21 7.2 101990 30
2010-04-22 08:19:47 51°31.383 2°52.672 1.4 32 7.2 101990 30
2010-04-22 08:19:52 51°31.383 2°52.672 1.2 27 7.2 101990 31
2010-04-22 08:19:57 51°31.383 2°52.672 1.5 31 7.2 101990 31
2010-04-22 08:20:02 51°31.383 2°52.672 1.6 22 7.2 101990 31
2010-04-22 08:20:07 51°31.382 2°52.672 1.9 30 7.2 101990 31
2010-04-22 08:20:12 51°31.382 2°52.672 1.3 82 7.2 101980 30
2010-04-22 08:20:17 51°31.383 2°52.672 0.9 37 7.2 101980 30
2010-04-22 08:20:22 51°31.382 2°52.672 2.4 18 7.2 101980 31
2010-04-22 08:20:27 51°31.382 2°52.673 2.9 33 7.2 101980 31
2010-04-22 08:20:32 51°31.382 2°52.672 2.8 79 7.2 101990 30
2010-04-22 08:20:37 51°31.383 2°52.672 2.4 32 7.2 101990 30
2010-04-22 08:20:42 51°31.382 2°52.672 2.4 21 7.3 101990 29
2010-04-22 08:20:47 51°31.382 2°52.672 2 34 7.3 101990 29
2010-04-22 08:20:52 51°31.382 2°52.672 1.7 21 7.2 101990 30
2010-04-22 08:20:57 51°31.382 2°52.672 1.9 32 7.2 101990 30
2010-04-22 08:21:02 51°31.382 2°52.672 1.5 27 7.2 101980 30
2010-04-22 08:21:07 51°31.382 2°52.672 1.5 39 7.2 101980 30
2010-04-22 08:21:12 51°31.382 2°52.672 1.8 23 7.1 101990 32
2010-04-22 08:21:17 51°31.382 2°52.671 1.4 37 7.1 101990 32
2010-04-22 08:21:22 51°31.382 2°52.672 1.5 73 7.1 101980 30
2010-04-22 08:21:27 51°31.382 2°52.671 2 31 7.1 101980 30
2010-04-22 08:21:32 51°31.382 2°52.671 1.9 18 7.1 101980 31
2010-04-22 08:21:37 51°31.381 2°52.671 1.7 35 7.1 101980 31
2010-04-22 08:21:42 51°31.381 2°52.671 1.8 78 7 101990 31
2010-04-22 08:21:47 51°31.381 2°52.671 2.1 34 7 101990 31
2010-04-22 08:21:52 51°31.382 2°52.671 2.4 81 7 101990 31
2010-04-22 08:21:57 51°31.381 2°52.672 1.7 32 7 101990 31
2010-04-22 08:22:02 51°31.382 2°52.671 2 25 7 101990 31
2010-04-22 08:22:07 51°31.381 2°52.671 2.1 32 7 101990 31
2010-04-22 08:22:12 51°31.382 2°52.671 1.9 27 7 101990 30
2010-04-22 08:22:17 51°31.381 2°52.671 2 33 7 101990 30
2010-04-22 08:22:22 51°31.382 2°52.671 1.8 22 7 101990 32
2010-04-22 08:22:27 51°31.381 2°52.672 1.4 30 7 101990 32
2010-04-22 08:22:32 51°31.382 2°52.671 1.7 76 6.9 101980 30
2010-04-22 08:22:37 51°31.381 2°52.671 1.7 38 6.9 101980 30
2010-04-22 08:22:42 51°31.382 2°52.671 1.6 25 6.9 101980 32
2010-04-22 08:22:47 51°31.381 2°52.672 1.4 35 6.9 101980 32
2010-04-22 08:22:52 51°31.382 2°52.671 1.5 77 6.9 101990 31
2010-04-22 08:22:57 51°31.381 2°52.672 1.7 34 6.9 101990 31
2010-04-22 08:23:02 51°31.382 2°52.672 1.5 29 6.8 101980 29
2010-04-22 08:23:07 51°31.382 2°52.672 1.9 34 6.8 101980 29
2010-04-22 08:23:12 51°31.381 2°52.672 2.3 269 6.8 101990 31
2010-04-22 08:23:17 51°31.381 2°52.672 1.6 34 6.8 101990 31
2010-04-22 08:23:22 51°31.381 2°52.672 1.7 23 6.8 101980 28
2010-04-22 08:23:27 51°31.381 2°52.672 2.1 32 6.8 101980 28
2010-04-22 08:23:32 51°31.381 2°52.673 2 25 6.8 101980 31
2010-04-22 08:23:37 51°31.381 2°52.672 1.7 34 6.8 101980 31
2010-04-22 08:23:42 51°31.381 2°52.673 1.6 22 6.8 101990 30
2010-04-22 08:23:47 51°31.381 2°52.672 1.6 33 6.8 101990 30
2010-04-22 08:23:52 51°31.381 2°52.673 1.8 21 6.8 101980 31
2010-04-22 08:23:57 51°31.381 2°52.672 1.8 37 6.8 101980 31
2010-04-22 08:24:02 51°31.381 2°52.673 1.9 24 6.8 102000 31
2010-04-22 08:24:07 51°31.381 2°52.673 1.6 29 6.8 102000 31
2010-04-22 08:24:12 51°31.381 2°52.673 1.9 270 6.8 101990 31
2010-04-22 08:24:17 51°31.381 2°52.673 1.5 31 6.8 101990 31
2010-04-22 08:24:22 51°31.381 2°52.673 1.6 27 6.8 101990 31
2010-04-22 08:24:27 51°31.381 2°52.673 1.4 33 6.8 101990 31
2010-04-22 08:24:32 51°31.381 2°52.673 1.2 76 6.8 101990 30
2010-04-22 08:24:37 51°31.381 2°52.673 1.6 39 6.8 101990 30
2010-04-22 08:24:42 51°31.382 2°52.672 1.4 25 6.7 101990 30
2010-04-22 08:24:47 51°31.381 2°52.673 1.3 36 6.7 101990 30
2010-04-22 08:24:52 51°31.382 2°52.673 1.2 77 6.7 101980 29
2010-04-22 08:24:57 51°31.381 2°52.674 1.4 38 6.7 101980 29
2010-04-22 08:25:02 51°31.382 2°52.673 1.3 19 6.7 101980 31
2010-04-22 08:25:07 51°31.381 2°52.673 1.2 38 6.7 101980 31
2010-04-22 08:25:12 51°31.382 2°52.673 1.4 20 6.7 101990 31
2010-04-22 08:25:17 51°31.382 2°52.674 1.3 34 6.7 101990 31
2010-04-22 08:25:22 51°31.382 2°52.673 1.1 25 6.7 101980 31
2010-04-22 08:25:27 51°31.382 2°52.674 1.1 35 6.7 101980 31
2010-04-22 08:25:32 51°31.382 2°52.674 1.3 18 6.7 101980 29
2010-04-22 08:25:37 51°31.381 2°52.674 1.3 32 6.7 101980 29
2010-04-22 08:25:42 51°31.381 2°52.674 1.1 27 6.7 101990 31
2010-04-22 08:25:47 51°31.381 2°52.674 1.4 38 6.7 101990 31
2010-04-22 08:25:52 51°31.381 2°52.674 1.1 20 6.7 101990 31
2010-04-22 08:25:57 51°31.381 2°52.674 1.3 32 6.7 101990 31
2010-04-22 08:26:02 51°31.381 2°52.674 1.6 22 6.7 101990 28
2010-04-22 08:26:07 51°31.381 2°52.674 1.4 33 6.7 101990 28
2010-04-22 08:26:12 51°31.381 2°52.675 1.5 22 6.6 101990 30
2010-04-22 08:26:17 51°31.382 2°52.674 1.3 38 6.6 101990 30
2010-04-22 08:26:22 51°31.381 2°52.675 1.5 25 6.6 101980 31
2010-04-22 08:26:27 51°31.381 2°52.675 1.3 31 6.6 101980 31
2010-04-22 08:26:32 51°31.382 2°52.675 1.2 18 6.6 101980 31
2010-04-22 08:26:37 51°31.382 2°52.675 1.3 31 6.6 101980 31
2010-04-22 08:26:42 51°31.382 2°52.675 1.2 26 6.7 101980 30
2010-04-22 08:26:47 51°31.382 2°52.675 1.4 32 6.7 101980 30
2010-04-22 08:26:52 51°31.382 2°52.675 1.6 27 6.6 101990 30
2010-04-22 08:26:57 51°31.382 2°52.676 1.3 32 6.6 101990 30
2010-04-22 08:27:02 51°31.382 2°52.675 1.3 27 6.6 101980 29
2010-04-22 08:27:07 51°31.382 2°52.676 0.9 32 6.6 101980 29
2010-04-22 08:27:12 51°31.382 2°52.676 1.3 76 6.6 101990 29
2010-04-22 08:27:17 51°31.382 2°52.676 1.5 32 6.6 101990 29
2010-04-22 08:27:22 51°31.382 2°52.676 1.5 21 6.6 101990 30
2010-04-22 08:27:27 51°31.382 2°52.676 1.7 30 6.6 101990 30
2010-04-22 08:27:32 51°31.382 2°52.676 1.6 26 6.6 101980 30
2010-04-22 08:27:37 51°31.382 2°52.676 1.4 35 6.6 101980 30
2010-04-22 08:27:42 51°31.381 2°52.677 1.4 25 6.6 101980 30
2010-04-22 08:27:47 51°31.382 2°52.676 1.2 33 6.6 101980 30
2010-04-22 08:27:52 51°31.381 2°52.677 1.9 21 6.6 101990 31
2010-04-22 08:27:57 51°31.382 2°52.676 1 32 6.6 101990 31
2010-04-22 08:28:02 51°31.382 2°52.677 1.3 23 6.6 101980 30
2010-04-22 08:28:07 51°31.382 2°52.676 2.4 38 6.6 101980 30
2010-04-22 08:28:12 51°31.381 2°52.677 2.7 19 6.7 101980 31
2010-04-22 08:28:17 51°31.382 2°52.676 2.4 39 6.7 101980 31
2010-04-22 08:28:22 51°31.381 2°52.677 2.5 78 6.7 101990 33
2010-04-22 08:28:27 51°31.382 2°52.676 2.8 33 6.7 101990 33
2010-04-22 08:28:32 51°31.381 2°52.677 2.4 22 6.7 101990 31
2010-04-22 08:28:37 51°31.381 2°52.677 2.2 35 6.7 101990 31
2010-04-22 08:28:42 51°31.381 2°52.677 2.2 26 6.7 101990 31
2010-04-22 08:28:47 51°31.381 2°52.677 2.1 37 6.7 101990 31
2010-04-22 08:28:52 51°31.381 2°52.677 2.5 19 6.6 101990 30
2010-04-22 08:28:57 51°31.381 2°52.677 2.2 38 6.6 101990 30
2010-04-22 08:29:02 51°31.381 2°52.677 2.5 19 6.6 101990 30
2010-04-22 08:29:07 51°31.381 2°52.677 2.5 34 6.6 101990 30
2010-04-22 08:29:12 51°31.381 2°52.677 2.5 76 6.6 101990 31
2010-04-22 08:29:17 51°31.38 2°52.678 2.2 30 6.6 101990 31
2010-04-22 08:29:22 51°31.381 2°52.677 2.1 26 6.6 101990 31
2010-04-22 08:29:27 51°31.38 2°52.677 2.3 36 6.6 101990 31
2010-04-22 08:29:32 51°31.38 2°52.677 2.6 78 6.6 101990 31
2010-04-22 08:29:37 51°31.38 2°52.678 2.4 36 6.6 101990 31
2010-04-22 08:29:42 51°31.38 2°52.678 2.3 21 6.6 101990 30
2010-04-22 08:29:47 51°31.38 2°52.678 2.3 38 6.6 101990 30
2010-04-22 08:29:52 51°31.38 2°52.678 2.5 19 6.6 101980 30
2010-04-22 08:29:57 51°31.38 2°52.678 2.2 31 6.6 101980 30
2010-04-22 08:30:02 51°31.38 2°52.678 2.4 21 6.6 101990 30
2010-04-22 08:30:07 51°31.38 2°52.678 2.4 36 6.6 101990 30
2010-04-22 08:30:12 51°31.379 2°52.679 2.6 23 6.6 101990 32
2010-04-22 08:30:17 51°31.379 2°52.679 2.5 30 6.6 101990 32
2010-04-22 08:30:22 51°31.379 2°52.679 2 81 6.6 101990 31
2010-04-22 08:30:27 51°31.379 2°52.678 2.3 32 6.6 101990 31
2010-04-22 08:30:32 51°31.379 2°52.679 2.3 21 6.6 101980 30
2010-04-22 08:30:37 51°31.379 2°52.679 2 36 6.6 101980 30
2010-04-22 08:30:42 51°31.379 2°52.679 2.2 77 6.6 101990 32
2010-04-22 08:30:47 51°31.379 2°52.679 2 34 6.6 101990 32
2010-04-22 08:30:52 51°31.379 2°52.679 2.1 73 6.5 101990 30
2010-04-22 08:30:57 51°31.378 2°52.679 1.9 33 6.5 101990 30
2010-04-22 08:31:02 51°31.378 2°52.68 2.2 26 6.5 101990 31
2010-04-22 08:31:07 51°31.378 2°52.679 2 38 6.5 101990 31
2010-04-22 08:31:12 51°31.378 2°52.68 2.2 24 6.5 101990 30
2010-04-22 08:31:17 51°31.378 2°52.679 2.4 32 6.5 101990 30
2010-04-22 08:31:22 51°31.378 2°52.68 2.1 21 6.5 101980 29
2010-04-22 08:31:27 51°31.378 2°52.68 2 34 6.5 101980 29
2010-04-22 08:31:32 51°31.377 2°52.68 1.7 77 6.5 101990 31
2010-04-22 08:31:37 51°31.377 2°52.68 2 40 6.5 101990 31
2010-04-22 08:31:42 51°31.377 2°52.68 1.7 26 6.5 101990 30
2010-04-22 08:31:47 51°31.377 2°52.68 1.7 40 6.5 101990 30
2010-04-22 08:31:52 51°31.377 2°52.68 1.6 23 6.5 102000 32
2010-04-22 08:31:57 51°31.377 2°52.68 1.8 34 6.5 102000 32
2010-04-22 08:32:02 51°31.377 2°52.68 1.7 23 6.5 101990 32
2010-04-22 08:32:07 51°31.377 2°52.681 1.6 30 6.5 101990 32
2010-04-22 08:32:12 51°31.377 2°52.681 1.7 26 6.5 102000 30
2010-04-22 08:32:17 51°31.377 2°52.681 1.6 31 6.5 102000 30
2010-04-22 08:32:22 51°31.376 2°52.681 1.4 21 6.5 101980 32
2010-04-22 08:32:27 51°31.376 2°52.68 1.3 34 6.5 101980 32
2010-04-22 08:32:32 51°31.376 2°52.681 1.3 28 6.5 102000 31
2010-04-22 08:32:37 51°31.376 2°52.681 0.1 34 6.5 102000 31
2010-04-22 08:32:42 51°31.376 2°52.681 0.1 22 6.5 102000 31
2010-04-22 08:32:47 51°31.376 2°52.681 -999 35 6.5 102000 31
2010-04-22 08:32:52 51°31.376 2°52.681 -999 23 6.5 101990 30
2010-04-22 08:32:57 51°31.375 2°52.681 -999 34 6.5 101990 30
2010-04-22 08:33:02 51°31.376 2°52.68 -999 23 6.5 102000 31
2010-04-22 08:33:07 51°31.375 2°52.681 -999 34 6.5 102000 31
2010-04-22 08:33:12 51°31.375 2°52.681 -999 23 6.5 101990 30
2010-04-22 08:33:17 51°31.376 2°52.68 -999 35 6.5 101990 30
2010-04-22 08:33:22 51°31.375 2°52.681 -999 23 6.5 101990 30
2010-04-22 08:33:27 51°31.376 2°52.68 -999 34 6.5 101990 30
2010-04-22 08:33:32 51°31.375 2°52.68 -999 77 6.5 101990 30
2010-04-22 08:33:37 51°31.376 2°52.68 -999 35 6.5 101990 30
2010-04-22 08:33:42 51°31.376 2°52.68 -999 23 6.5 101990 30
2010-04-22 08:33:47 51°31.376 2°52.681 -999 34 6.5 101990 30
2010-04-22 08:33:52 51°31.376 2°52.681 -999 23 6.5 102000 30
2010-04-22 08:33:57 51°31.376 2°52.68 -999 34 6.5 102000 30
2010-04-22 08:34:02 51°31.376 2°52.68 -999 23 6.5 101990 29
2010-04-22 08:34:07 51°31.376 2°52.68 0.1 33 6.5 101990 29
2010-04-22 08:34:12 51°31.376 2°52.68 0.1 22 6.5 101990 30
2010-04-22 08:34:17 51°31.376 2°52.68 -999 34 6.5 101990 30
2010-04-22 08:34:22 51°31.377 2°52.68 -999 23 6.5 101980 30
2010-04-22 08:34:27 51°31.377 2°52.68 -999 34 6.5 101980 30
2010-04-22 08:34:32 51°31.377 2°52.68 -999 23 6.5 101990 31
2010-04-22 08:34:37 51°31.377 2°52.68 -999 34 6.5 101990 31
2010-04-22 08:34:42 51°31.377 2°52.68 -999 23 6.5 101990 30
2010-04-22 08:34:47 51°31.378 2°52.68 -999 34 6.5 101990 30
2010-04-22 08:34:52 51°31.377 2°52.68 -999 23 6.5 101990 31
2010-04-22 08:34:57 51°31.378 2°52.679 -999 35 6.5 101990 31
2010-04-22 08:35:02 51°31.378 2°52.68 -999 23 6.5 101990 31
2010-04-22 08:35:07 51°31.378 2°52.681 1.5 35 6.5 101990 31
2010-04-22 08:35:12 51°31.378 2°52.68 1.5 23 6.5 101990 31
2010-04-22 08:35:17 51°31.378 2°52.68 0.2 37 6.5 101990 31
2010-04-22 08:35:22 51°31.379 2°52.68 0.4 20 6.5 101990 31
2010-04-22 08:35:27 51°31.379 2°52.68 0.1 34 6.5 101990 31
2010-04-22 08:35:32 51°31.379 2°52.68 0.1 23 6.5 102000 32
2010-04-22 08:35:37 51°31.379 2°52.68 -999 34 6.5 102000 32
2010-04-22 08:35:42 51°31.38 2°52.679 -999 23 6.5 101980 31
2010-04-22 08:35:47 51°31.38 2°52.679 -999 34 6.5 101980 31
2010-04-22 08:35:52 51°31.38 2°52.68 -999 23 6.5 101990 31
2010-04-22 08:35:57 51°31.38 2°52.679 -999 34 6.5 101990 31
2010-04-22 08:36:02 51°31.38 2°52.68 -999 23 6.5 101990 31
2010-04-22 08:36:07 51°31.381 2°52.679 -999 34 6.5 101990 31
2010-04-22 08:36:12 51°31.381 2°52.679 -999 23 6.6 101980 31
2010-04-22 08:36:17 51°31.381 2°52.679 -999 35 6.6 101980 31
2010-04-22 08:36:22 51°31.381 2°52.679 -999 23 6.6 101980 32
2010-04-22 08:36:27 51°31.381 2°52.679 -999 34 6.6 101980 32
2010-04-22 08:36:32 51°31.382 2°52.679 -999 23 6.6 101990 32
2010-04-22 08:36:37 51°31.382 2°52.679 -999 44 6.6 101990 32
2010-04-22 08:36:42 51°31.382 2°52.679 -999 23 6.7 101990 31
2010-04-22 08:36:47 51°31.382 2°52.678 -999 35 6.7 101990 31
2010-04-22 08:36:52 51°31.382 2°52.679 -999 23 6.7 101990 32
2010-04-22 08:36:57 51°31.383 2°52.677 -999 38 6.7 101990 32
2010-04-22 08:37:02 51°31.382 2°52.678 -999 25 6.8 102000 32
2010-04-22 08:37:07 51°31.383 2°52.677 0.1 34 6.8 102000 32
2010-04-22 08:37:12 51°31.382 2°52.677 0.1 22 6.8 101990 32
2010-04-22 08:37:17 51°31.383 2°52.677 -999 34 6.8 101990 32
2010-04-22 08:37:22 51°31.383 2°52.677 -999 23 6.8 101990 31
2010-04-22 08:37:27 51°31.383 2°52.677 -999 35 6.8 101990 31
2010-04-22 08:37:32 51°31.383 2°52.677 -999 23 6.8 101990 31
2010-04-22 08:37:37 51°31.383 2°52.676 -999 35 6.8 101990 31
2010-04-22 08:37:42 51°31.382 2°52.676 -999 23 6.8 102000 31
2010-04-22 08:37:47 51°31.383 2°52.675 -999 35 6.8 102000 31
2010-04-22 08:37:52 51°31.382 2°52.676 -999 23 6.8 101990 30
2010-04-22 08:37:57 51°31.382 2°52.675 -999 34 6.8 101990 30
2010-04-22 08:38:02 51°31.383 2°52.675 -999 23 6.8 101990 30
2010-04-22 08:38:07 51°31.382 2°52.675 -999 34 6.8 101990 30
2010-04-22 08:38:12 51°31.382 2°52.675 -999 78 6.8 101990 31
2010-04-22 08:38:17 51°31.382 2°52.674 -999 34 6.8 101990 31
2010-04-22 08:38:22 51°31.382 2°52.674 -999 23 6.8 101990 31
2010-04-22 08:38:27 51°31.382 2°52.673 -999 38 6.8 101990 31
2010-04-22 08:38:32 51°31.382 2°52.674 -999 25 6.7 101980 30
2010-04-22 08:38:37 51°31.382 2°52.673 -999 35 6.7 101980 30
2010-04-22 08:38:42 51°31.382 2°52.673 -999 23 6.7 101990 30
2010-04-22 08:38:47 51°31.382 2°52.673 -999 34 6.7 101990 30
2010-04-22 08:38:52 51°31.382 2°52.673 0.1 18 6.7 101980 30
2010-04-22 08:38:57 51°31.382 2°52.673 0.1 34 6.7 101980 30
2010-04-22 08:39:02 51°31.382 2°52.673 0.1 23 6.7 101990 30
2010-04-22 08:39:07 51°31.381 2°52.672 -999 34 6.7 101990 30
2010-04-22 08:39:12 51°31.381 2°52.672 -999 23 6.7 101990 30
2010-04-22 08:39:17 51°31.381 2°52.672 -999 34 6.7 101990 30
2010-04-22 08:39:22 51°31.381 2°52.671 -999 78 6.7 101980 29
2010-04-22 08:39:27 51°31.381 2°52.672 -999 35 6.7 101980 29
2010-04-22 08:39:32 51°31.381 2°52.671 -999 23 6.7 101990 30
2010-04-22 08:39:37 51°31.381 2°52.672 -999 34 6.7 101990 30
2010-04-22 08:39:42 51°31.381 2°52.671 -999 22 6.7 101990 31
2010-04-22 08:39:47 51°31.381 2°52.671 -999 34 6.7 101990 31
2010-04-22 08:39:52 51°31.381 2°52.671 -999 77 6.7 101990 31
2010-04-22 08:39:57 51°31.381 2°52.671 -999 34 6.7 101990 31
2010-04-22 08:40:02 51°31.381 2°52.67 -999 23 6.6 101990 31
2010-04-22 08:40:07 51°31.381 2°52.671 -999 34 6.6 101990 31
2010-04-22 08:40:12 51°31.381 2°52.671 -999 23 6.6 101990 31
2010-04-22 08:40:17 51°31.381 2°52.67 -999 35 6.6 101990 31
2010-04-22 08:40:22 51°31.381 2°52.67 -999 23 6.6 101990 31
2010-04-22 08:40:27 51°31.381 2°52.67 -999 34 6.6 101990 31
2010-04-22 08:40:32 51°31.381 2°52.671 -999 77 6.6 101990 31
2010-04-22 08:40:37 51°31.381 2°52.67 -999 35 6.6 101990 31
2010-04-22 08:40:42 51°31.381 2°52.67 -999 23 6.7 101990 31
2010-04-22 08:40:47 51°31.382 2°52.67 -999 37 6.7 101990 31
2010-04-22 08:40:52 51°31.382 2°52.67 -999 24 6.6 101990 31
2010-04-22 08:40:57 51°31.382 2°52.67 -999 35 6.6 101990 31
2010-04-22 08:41:02 51°31.382 2°52.67 -999 23 6.6 101980 31
2010-04-22 08:41:07 51°31.382 2°52.669 -999 35 6.6 101980 31
2010-04-22 08:41:12 51°31.382 2°52.67 -999 23 6.6 101990 30
2010-04-22 08:41:17 51°31.383 2°52.67 -999 35 6.6 101990 30
2010-04-22 08:41:22 51°31.383 2°52.67 -999 23 6.6 101990 31
2010-04-22 08:41:27 51°31.383 2°52.67 -999 34 6.6 101990 31
2010-04-22 08:41:32 51°31.383 2°52.67 -999 23 6.6 101980 30
2010-04-22 08:41:37 51°31.383 2°52.67 -999 35 6.6 101980 30
2010-04-22 08:41:42 51°31.383 2°52.669 0.1 18 6.6 101990 31
2010-04-22 08:41:47 51°31.383 2°52.67 0.1 34 6.6 101990 31
2010-04-22 08:41:52 51°31.383 2°52.67 0.1 22 6.6 101990 30
2010-04-22 08:41:57 51°31.383 2°52.67 -999 35 6.6 101990 30
2010-04-22 08:42:02 51°31.383 2°52.67 -999 23 6.6 101990 29
2010-04-22 08:42:07 51°31.383 2°52.671 -999 35 6.6 101990 29
2010-04-22 08:42:12 51°31.384 2°52.67 -999 23 6.7 101980 31
2010-04-22 08:42:17 51°31.383 2°52.671 -999 34 6.7 101980 31
2010-04-22 08:42:22 51°31.384 2°52.671 -999 23 6.7 101980 31
2010-04-22 08:42:27 51°31.383 2°52.671 -999 34 6.7 101980 31
2010-04-22 08:42:32 51°31.384 2°52.67 -999 78 6.7 101990 31
2010-04-22 08:42:37 51°31.383 2°52.671 -999 34 6.7 101990 31
2010-04-22 08:42:42 51°31.383 2°52.671 -999 23 6.7 101980 31
2010-04-22 08:42:47 51°31.383 2°52.671 -999 34 6.7 101980 31
2010-04-22 08:42:52 51°31.383 2°52.671 -999 77 6.7 101990 31
2010-04-22 08:42:57 51°31.384 2°52.671 -999 35 6.7 101990 31
2010-04-22 08:43:02 51°31.383 2°52.671 -999 23 6.8 101990 31
2010-04-22 08:43:07 51°31.383 2°52.671 -999 38 6.8 101990 31
2010-04-22 08:43:12 51°31.383 2°52.671 -999 25 6.8 101990 31
2010-04-22 08:43:17 51°31.383 2°52.671 -999 35 6.8 101990 31
2010-04-22 08:43:22 51°31.383 2°52.671 -999 23 6.8 101990 31
2010-04-22 08:43:27 51°31.383 2°52.671 -999 35 6.8 101990 31
2010-04-22 08:43:32 51°31.383 2°52.671 -999 23 6.8 101990 31
2010-04-22 08:43:37 51°31.383 2°52.671 -999 35 6.8 101990 31
2010-04-22 08:43:42 51°31.383 2°52.672 -999 23 6.8 101990 31
2010-04-22 08:43:47 51°31.383 2°52.671 -999 35 6.8 101990 31
2010-04-22 08:43:52 51°31.383 2°52.671 -999 23 6.9 101980 31
2010-04-22 08:43:57 51°31.382 2°52.671 -999 35 6.9 101980 31
2010-04-22 08:44:02 51°31.381 2°52.671 -999 23 6.9 101990 31
2010-04-22 08:44:07 51°31.381 2°52.67 -999 35 6.9 101990 31
2010-04-22 08:44:12 51°31.38 2°52.669 -999 23 6.9 101990 31
2010-04-22 08:44:17 51°31.379 2°52.669 -999 34 6.9 101990 31
2010-04-22 08:44:22 51°31.378 2°52.668 0.1 18 7 102000 31
2010-04-22 08:44:27 51°31.378 2°52.667 0.1 34 7 102000 31
2010-04-22 08:44:32 51°31.376 2°52.667 0.1 28 7 101990 31
2010-04-22 08:44:37 51°31.376 2°52.665 -999 35 7 101990 31
2010-04-22 08:44:42 51°31.374 2°52.665 -999 23 7 101990 29
2010-04-22 08:44:47 51°31.373 2°52.663 -999 35 7 101990 29
2010-04-22 08:44:52 51°31.372 2°52.663 -999 23 7.1 101980 30
2010-04-22 08:44:57 51°31.371 2°52.662 -999 34 7.1 101980 30
2010-04-22 08:45:02 51°31.37 2°52.661 -999 23 7.1 101990 30
2010-04-22 08:45:07 51°31.368 2°52.659 -999 34 7.1 101990 30
2010-04-22 08:45:12 51°31.367 2°52.659 -999 23 7.1 101990 30
2010-04-22 08:45:17 51°31.366 2°52.657 -999 35 7.1 101990 30
2010-04-22 08:45:22 51°31.365 2°52.656 -999 23 7.1 101990 30
2010-04-22 08:45:27 51°31.363 2°52.656 -999 34 7.1 101990 30
2010-04-22 08:45:32 51°31.362 2°52.655 -999 23 7.2 101990 30
2010-04-22 08:45:37 51°31.361 2°52.654 -999 34 7.2 101990 30
2010-04-22 08:45:42 51°31.36 2°52.653 -999 23 7.2 101990 30
2010-04-22 08:45:47 51°31.359 2°52.652 -999 35 7.2 101990 30
2010-04-22 08:45:52 51°31.358 2°52.651 -999 23 7.2 101990 30
2010-04-22 08:45:57 51°31.357 2°52.651 -999 34 7.2 101990 30
2010-04-22 08:46:02 51°31.356 2°52.65 -999 23 7.3 101990 30
2010-04-22 08:46:07 51°31.355 2°52.649 -999 34 7.3 101990 30
2010-04-22 08:46:12 51°31.355 2°52.648 0.1 18 7.3 101990 30
2010-04-22 08:46:17 51°31.354 2°52.648 0.1 35 7.3 101990 30
2010-04-22 08:46:22 51°31.353 2°52.647 0.1 23 7.3 101990 30
2010-04-22 08:46:27 51°31.352 2°52.646 -999 34 7.3 101990 30
2010-04-22 08:46:32 51°31.351 2°52.646 -999 23 7.3 101990 30
2010-04-22 08:46:37 51°31.35 2°52.646 -999 35 7.3 101990 30
2010-04-22 08:46:42 51°31.35 2°52.644 -999 23 7.3 101990 30
2010-04-22 08:46:47 51°31.349 2°52.644 -999 34 7.3 101990 30
2010-04-22 08:46:52 51°31.348 2°52.644 -999 23 7.3 101990 30
2010-04-22 08:46:57 51°31.348 2°52.643 -999 34 7.3 101990 30
2010-04-22 08:47:02 51°31.347 2°52.643 -999 23 7.3 102000 30
2010-04-22 08:47:07 51°31.347 2°52.642 -999 34 7.3 102000 30
2010-04-22 08:47:12 51°31.346 2°52.642 -999 78 7.3 101980 30
2010-04-22 08:47:17 51°31.346 2°52.641 -999 34 7.3 101980 30
2010-04-22 08:47:22 51°31.345 2°52.642 -999 23 7.3 101990 29
2010-04-22 08:47:27 51°31.345 2°52.641 -999 34 7.3 101990 29
2010-04-22 08:47:32 51°31.344 2°52.641 -999 23 7.3 101990 30
2010-04-22 08:47:37 51°31.344 2°52.641 -999 38 7.3 101990 30
2010-04-22 08:47:42 51°31.344 2°52.641 -999 23 7.3 101990 30
2010-04-22 08:47:47 51°31.344 2°52.64 -999 35 7.3 101990 30
2010-04-22 08:47:52 51°31.343 2°52.64 -999 23 7.3 101990 30
2010-04-22 08:47:57 51°31.343 2°52.64 -999 34 7.3 101990 30
2010-04-22 08:48:02 51°31.342 2°52.64 -999 23 7.3 102000 30
2010-04-22 08:48:07 51°31.341 2°52.639 -999 35 7.3 102000 30
2010-04-22 08:48:12 51°31.339 2°52.639 -999 266 7.4 101990 30
2010-04-22 08:48:17 51°31.336 2°52.639 0.1 249 7.4 101990 30
2010-04-22 08:48:22 51°31.332 2°52.641 0.1 281 7.4 102000 30
2010-04-22 08:48:27 51°31.328 2°52.644 0.7 244 7.4 102000 30
2010-04-22 08:48:32 51°31.324 2°52.648 0.6 24 7.3 101990 30
2010-04-22 08:48:37 51°31.32 2°52.654 1.8 241 7.3 101990 30
2010-04-22 08:48:42 51°31.317 2°52.661 2.2 27 7.4 101990 30
2010-04-22 08:48:47 51°31.314 2°52.67 2 30 7.4 101990 30
2010-04-22 08:48:52 51°31.311 2°52.68 2.5 21 7.4 101990 30
2010-04-22 08:48:57 51°31.31 2°52.69 3.5 317 7.4 101990 30
2010-04-22 08:49:02 51°31.309 2°52.702 3.6 315 7.4 101990 30
2010-04-22 08:49:07 51°31.309 2°52.716 3.9 320 7.4 101990 30
2010-04-22 08:49:12 51°31.311 2°52.73 4.2 279 7.4 101980 29
2010-04-22 08:49:17 51°31.312 2°52.746 4.8 327 7.4 101980 29
2010-04-22 08:49:22 51°31.316 2°52.762 4.7 326 7.4 101980 31
2010-04-22 08:49:27 51°31.321 2°52.779 4.5 331 7.4 101980 31
2010-04-22 08:49:32 51°31.327 2°52.795 5.8 280 7.4 101990 29
2010-04-22 08:49:37 51°31.335 2°52.812 5.2 330 7.4 101990 29
2010-04-22 08:49:42 51°31.344 2°52.829 5 331 7.4 101980 29
2010-04-22 08:49:47 51°31.355 2°52.846 5.1 332 7.4 101980 29
2010-04-22 08:49:52 51°31.367 2°52.864 6.4 328 7.3 101980 30
2010-04-22 08:49:57 51°31.381 2°52.881 6.7 331 7.3 101980 30
2010-04-22 08:50:02 51°31.394 2°52.901 7.3 329 7.3 101980 28
2010-04-22 08:50:07 51°31.409 2°52.919 7.5 330 7.3 101980 28
2010-04-22 08:50:12 51°31.423 2°52.939 6.3 329 7.2 101980 30
2010-04-22 08:50:17 51°31.438 2°52.959 7 330 7.2 101980 30
2010-04-22 08:50:22 51°31.453 2°52.98 7.8 331 7.2 101970 29
2010-04-22 08:50:27 51°31.468 2°53.001 6.5 330 7.2 101970 29
2010-04-22 08:50:32 51°31.484 2°53.021 8 328 7.1 101950 30
2010-04-22 08:50:37 51°31.499 2°53.043 7.5 330 7.1 101950 30
2010-04-22 08:50:42 51°31.515 2°53.064 7 333 7.1 101980 30
2010-04-22 08:50:47 51°31.53 2°53.085 7.1 333 7.1 101980 30
2010-04-22 08:50:52 51°31.546 2°53.107 9.5 333 7.1 101970 31
2010-04-22 08:50:57 51°31.561 2°53.129 7.9 333 7.1 101970 31
2010-04-22 08:51:02 51°31.577 2°53.15 7.8 335 7 101970 30
2010-04-22 08:51:07 51°31.592 2°53.172 7.7 335 7 101970 30
2010-04-22 08:51:12 51°31.608 2°53.194 8.4 335 7 101970 30
2010-04-22 08:51:17 51°31.624 2°53.216 7.3 337 7 101970 30
2010-04-22 08:51:22 51°31.639 2°53.238 7.2 335 7 101970 30
2010-04-22 08:51:27 51°31.654 2°53.26 7.2 335 7 101970 30
2010-04-22 08:51:32 51°31.67 2°53.282 6.5 334 7 101970 30
2010-04-22 08:51:37 51°31.685 2°53.304 7 334 7 101970 30
2010-04-22 08:51:42 51°31.701 2°53.325 6.3 332 6.9 101970 30
2010-04-22 08:51:47 51°31.716 2°53.347 7.2 335 6.9 101970 30
2010-04-22 08:51:52 51°31.731 2°53.369 8.3 334 6.9 101970 31
2010-04-22 08:51:57 51°31.747 2°53.391 6.7 334 6.9 101970 31
2010-04-22 08:52:02 51°31.763 2°53.412 6.9 336 6.9 101990 31
2010-04-22 08:52:07 51°31.779 2°53.435 6.6 330 6.9 101990 31
2010-04-22 08:52:12 51°31.794 2°53.456 9.3 334 6.9 101970 31
2010-04-22 08:52:17 51°31.809 2°53.478 8.5 337 6.9 101970 31
2010-04-22 08:52:22 51°31.825 2°53.5 7.4 334 6.8 101970 30
2010-04-22 08:53:01 51°31.944 2°53.672 7.6 336 6.8 101960 31
2010-04-22 08:53:06 51°31.96 2°53.694 7.7 282 6.8 101960 31
2010-04-22 08:53:11 51°31.975 2°53.716 7.8 334 6.8 101960 30
2010-04-22 08:53:39 51°32.061 2°53.84 7.9 333 6.8 101970 31
2010-04-22 08:53:44 51°32.076 2°53.862 7.6 280 6.8 101970 31
2010-04-22 08:53:44 51°32.076 2°53.862 7.6 280 6.8 101970 31
2010-04-22 08:53:56 51°32.113 2°53.916 7.9 332 6.8 101970 31
2010-04-22 08:54:01 51°32.129 2°53.938 7.8 335 6.8 101970 30
2010-04-22 08:54:01 51°32.129 2°53.938 7.8 335 6.8 101970 30
2010-04-22 08:54:11 51°32.159 2°53.982 7.4 335 6.8 101970 30
2010-04-22 08:54:32 51°32.225 2°54.075 7.5 333 6.7 101950 31
2010-04-22 08:54:37 51°32.24 2°54.098 7.1 333 6.7 101950 31
2010-04-22 08:55:05 51°32.327 2°54.222 6.9 335 -999 -999 -999
2010-04-22 08:55:25 51°32.388 2°54.311 7.7 332 6.7 101970 31
2010-04-22 08:55:30 51°32.404 2°54.333 7.5 336 6.7 101950 31
2010-04-22 08:55:35 51°32.419 2°54.356 7.5 332 6.7 101950 31
2010-04-22 08:55:40 51°32.434 2°54.378 7.7 334 6.7 101960 30
2010-04-22 08:55:45 51°32.45 2°54.401 6.9 335 6.7 101960 30
2010-04-22 08:55:50 51°32.465 2°54.423 7.6 334 6.7 101970 29
2010-04-22 08:55:55 51°32.481 2°54.445 7.6 333 6.7 101970 29
2010-04-22 08:56:00 51°32.497 2°54.468 7.8 336 6.7 101960 30
2010-04-22 08:56:05 51°32.512 2°54.49 7.5 285 6.7 101960 30
2010-04-22 08:56:10 51°32.527 2°54.513 8.4 337 6.7 101960 30
2010-04-22 08:56:15 51°32.543 2°54.535 7.6 337 6.7 101960 30
2010-04-22 08:56:20 51°32.558 2°54.557 8.7 337 6.7 101980 31
2010-04-22 08:56:25 51°32.574 2°54.578 7.1 336 6.7 101980 31
2010-04-22 08:56:30 51°32.591 2°54.598 7.5 337 6.7 101980 30
2010-04-22 08:56:35 51°32.607 2°54.618 7.2 336 6.7 101980 30
2010-04-22 08:56:40 51°32.625 2°54.636 7.1 339 6.7 101990 30
2010-04-22 08:56:45 51°32.642 2°54.654 7.6 339 6.7 101990 30
2010-04-22 08:56:50 51°32.66 2°54.671 7 337 6.7 101960 30
2010-04-22 08:56:55 51°32.677 2°54.688 8.1 337 6.7 101960 30
2010-04-22 08:57:00 51°32.695 2°54.705 8.1 338 6.7 101960 29
2010-04-22 08:57:05 51°32.713 2°54.721 8 336 6.7 101960 29
2010-04-22 08:57:10 51°32.731 2°54.737 7.3 340 6.6 101970 30
2010-04-22 08:57:15 51°32.75 2°54.753 7.7 336 6.6 101970 30
2010-04-22 08:57:20 51°32.768 2°54.768 7.4 336 6.6 101970 30
2010-04-22 08:57:25 51°32.786 2°54.785 7.1 335 6.6 101970 30
2010-04-22 08:57:30 51°32.805 2°54.8 7.4 336 6.6 101970 31
2010-04-22 08:57:35 51°32.823 2°54.815 6.6 338 6.6 101970 31
2010-04-22 08:57:40 51°32.841 2°54.831 6.4 335 6.6 101990 30
2010-04-22 08:57:45 51°32.86 2°54.846 7.1 337 6.6 101990 30
2010-04-22 08:57:50 51°32.878 2°54.862 7.2 335 6.6 101960 31
2010-04-22 08:57:55 51°32.897 2°54.877 6.4 337 6.6 101960 31
2010-04-22 08:58:00 51°32.915 2°54.893 6.5 337 6.6 101980 28
2010-04-22 08:58:05 51°32.933 2°54.909 6.7 286 6.6 101980 28
2010-04-22 08:58:10 51°32.95 2°54.926 7.5 339 6.6 101970 30
2010-04-22 08:58:15 51°32.968 2°54.943 5.8 337 6.6 101970 30
2010-04-22 08:58:20 51°32.986 2°54.96 6.4 337 6.6 101970 29
2010-04-22 08:58:25 51°33.003 2°54.977 5.6 335 6.6 101970 29
2010-04-22 08:58:30 51°33.021 2°54.994 5.8 336 6.5 101970 28
2010-04-22 08:58:35 51°33.038 2°55.012 6.7 333 6.5 101970 28
2010-04-22 08:58:40 51°33.056 2°55.028 6.7 334 6.6 101980 31
2010-04-22 08:58:45 51°33.073 2°55.046 7.3 333 6.6 101980 31
2010-04-22 08:58:50 51°33.09 2°55.063 7.3 336 6.5 101960 30
2010-04-22 08:58:55 51°33.107 2°55.081 7 333 6.5 101960 30
2010-04-22 08:59:00 51°33.124 2°55.098 7 334 6.6 101970 31
2010-04-22 08:59:05 51°33.141 2°55.115 6.8 333 6.6 101970 31
2010-04-22 08:59:10 51°33.158 2°55.133 7.3 333 6.6 101980 30
2010-04-22 08:59:15 51°33.175 2°55.151 6.6 333 6.6 101980 30
2010-04-22 08:59:20 51°33.192 2°55.168 6.9 334 6.6 101980 31
2010-04-22 08:59:25 51°33.209 2°55.186 7.1 334 6.6 101980 31
2010-04-22 08:59:30 51°33.225 2°55.204 6.6 331 6.6 101970 30
2010-04-22 08:59:35 51°33.239 2°55.223 6 332 6.6 101970 30
2010-04-22 08:59:40 51°33.251 2°55.243 6.1 329 6.6 101970 30
2010-04-22 08:59:45 51°33.261 2°55.263 5.7 329 6.6 101970 30
2010-04-22 08:59:50 51°33.269 2°55.284 6 328 6.6 101980 31
2010-04-22 08:59:55 51°33.276 2°55.306 5.5 329 6.6 101980 31
2010-04-22 08:59:59 51°33.281 2°55.324 5.4 328 6.6 101960 31
2010-04-22 09:00:05 51°33.287 2°55.35 5.6 286 6.6 101960 31
2010-04-22 09:00:10 51°33.292 2°55.371 5.2 326 6.6 101980 30
2010-04-22 09:00:15 51°33.296 2°55.39 4.7 330 6.6 101980 30
2010-04-22 09:00:20 51°33.299 2°55.41 4.5 325 6.6 101970 30
2010-04-22 09:00:25 51°33.301 2°55.429 4.6 304 6.6 101970 30
2010-04-22 09:00:30 51°33.302 2°55.448 4.4 323 6.6 101980 30
2010-04-22 09:00:35 51°33.302 2°55.465 4.2 302 6.6 101980 30
2010-04-22 09:00:40 51°33.302 2°55.483 3.7 322 6.6 101980 29
2010-04-22 09:00:45 51°33.302 2°55.5 4 302 6.6 101980 29
2010-04-22 09:00:50 51°33.3 2°55.516 3.7 318 6.6 101990 31
2010-04-22 09:00:55 51°33.3 2°55.532 3.5 302 6.6 101990 31
2010-04-22 09:01:00 51°33.298 2°55.547 3.8 26 6.6 101980 30
2010-04-22 09:01:05 51°33.296 2°55.561 4.2 322 6.6 101980 30
2010-04-22 09:01:10 51°33.294 2°55.576 4 321 6.6 101980 30
2010-04-22 09:01:15 51°33.291 2°55.589 3.8 311 6.6 101980 30
2010-04-22 09:01:20 51°33.289 2°55.602 4 323 6.6 102000 31
2010-04-22 09:01:25 51°33.284 2°55.613 3.7 305 6.6 102000 31
2010-04-22 09:01:30 51°33.281 2°55.625 3.2 320 6.6 101990 31
2010-04-22 09:01:35 51°33.277 2°55.635 3.4 304 6.6 101990 31
2010-04-22 09:01:40 51°33.274 2°55.644 3.1 21 6.6 101980 31
2010-04-22 09:01:45 51°33.27 2°55.653 3.3 303 6.6 101980 31
2010-04-22 09:01:50 51°33.267 2°55.661 2.9 21 6.6 101960 30
2010-04-22 09:01:55 51°33.263 2°55.668 3 304 6.6 101960 30
2010-04-22 09:02:00 51°33.26 2°55.675 2.2 26 6.6 101970 30
2010-04-22 09:02:05 51°33.256 2°55.682 2.2 280 6.6 101970 30
2010-04-22 09:02:10 51°33.253 2°55.688 2.1 22 6.6 101970 30
2010-04-22 09:02:15 51°33.25 2°55.694 1.9 304 6.6 101970 30
2010-04-22 09:02:20 51°33.247 2°55.701 1.9 21 6.6 101970 31
2010-04-22 09:02:25 51°33.244 2°55.706 1.9 308 6.6 101970 31
2010-04-22 09:02:30 51°33.242 2°55.713 2 21 6.6 101990 31
2010-04-22 09:02:35 51°33.239 2°55.718 1.5 301 6.6 101990 31
2010-04-22 09:02:40 51°33.238 2°55.723 1.6 19 6.6 101990 30
2010-04-22 09:02:45 51°33.236 2°55.728 1.7 301 6.6 101990 30
2010-04-22 09:02:50 51°33.234 2°55.734 1.6 21 6.6 101990 31
2010-04-22 09:02:55 51°33.232 2°55.739 1.8 305 6.6 101990 31
2010-04-22 09:03:00 51°33.231 2°55.744 1.2 21 6.6 101980 30
2010-04-22 09:03:05 51°33.229 2°55.749 1.5 302 6.6 101980 30
2010-04-22 09:03:10 51°33.228 2°55.753 1.1 27 6.6 101980 30
2010-04-22 09:03:15 51°33.227 2°55.758 1.2 306 6.6 101980 30
2010-04-22 09:03:20 51°33.225 2°55.762 0.7 27 6.7 101980 30
2010-04-22 09:03:25 51°33.225 2°55.767 0.1 306 6.7 101980 30
2010-04-22 09:03:30 51°33.223 2°55.771 0.1 23 6.6 101970 31
2010-04-22 09:03:35 51°33.222 2°55.776 -999 306 6.6 101970 31
2010-04-22 09:03:40 51°33.221 2°55.78 -999 23 6.7 101980 30
2010-04-22 09:03:45 51°33.22 2°55.784 1.5 307 6.7 101980 30
2010-04-22 09:03:50 51°33.219 2°55.788 2 23 6.7 101980 29
2010-04-22 09:03:55 51°33.219 2°55.792 1.5 311 6.7 101980 29
2010-04-22 09:04:00 51°33.218 2°55.796 1.9 21 6.7 101980 31
2010-04-22 09:04:05 51°33.217 2°55.799 1.5 286 6.7 101980 31
2010-04-22 09:04:11 51°33.216 2°55.804 1.6 246 6.7 101980 31
2010-04-22 09:04:15 51°33.215 2°55.807 1.4 304 6.7 101980 31
2010-04-22 09:04:20 51°33.215 2°55.81 1.7 19 6.7 101980 31
2010-04-22 09:04:25 51°33.214 2°55.814 1.6 303 6.7 101980 31
2010-04-22 09:04:30 51°33.213 2°55.817 1.8 21 6.8 101980 30
2010-04-22 09:04:35 51°33.212 2°55.821 1.2 310 6.8 101980 30
2010-04-22 09:04:40 51°33.212 2°55.824 1.6 18 6.8 101980 32
2010-04-22 09:04:45 51°33.211 2°55.827 1.4 309 6.8 101980 32
2010-04-22 09:04:50 51°33.211 2°55.831 1.4 250 6.8 101980 30
2010-04-22 09:04:55 51°33.21 2°55.834 0.2 306 6.8 101980 30
2010-04-22 09:05:00 51°33.21 2°55.838 0.1 254 6.8 101980 31
2010-04-22 09:05:05 51°33.209 2°55.841 -999 306 6.8 101980 31
2010-04-22 09:05:10 51°33.209 2°55.844 -999 253 6.8 101970 30
2010-04-22 09:05:15 51°33.208 2°55.847 -999 306 6.8 101970 30
2010-04-22 09:05:20 51°33.208 2°55.85 -999 252 6.8 101980 31
2010-04-22 09:05:25 51°33.208 2°55.853 -999 306 6.8 101980 31
2010-04-22 09:05:30 51°33.208 2°55.855 -999 23 6.8 101980 30
2010-04-22 09:05:35 51°33.208 2°55.859 -999 306 6.8 101980 30
2010-04-22 09:05:40 51°33.207 2°55.861 -999 250 6.8 101980 31
2010-04-22 09:05:45 51°33.208 2°55.865 -999 306 6.8 101980 31
2010-04-22 09:05:50 51°33.207 2°55.867 -999 258 6.8 101970 31
2010-04-22 09:05:55 51°33.207 2°55.87 -999 306 6.8 101970 31
2010-04-22 09:05:59 51°33.207 2°55.872 -999 250 6.9 101990 30
2010-04-22 09:06:05 51°33.207 2°55.875 -999 283 6.9 101990 30
2010-04-22 09:06:10 51°33.207 2°55.878 -999 250 6.9 101990 31
2010-04-22 09:06:15 51°33.207 2°55.881 -999 306 6.9 101990 31
2010-04-22 09:06:20 51°33.207 2°55.883 -999 258 6.9 101980 31
2010-04-22 09:06:25 51°33.207 2°55.886 -999 306 6.9 101980 31
2010-04-22 09:06:30 51°33.207 2°55.889 -999 253 6.9 101980 30
2010-04-22 09:06:35 51°33.207 2°55.891 -999 306 6.9 101980 30
2010-04-22 09:06:40 51°33.207 2°55.893 -999 249 6.9 101990 31
2010-04-22 09:06:45 51°33.207 2°55.896 -999 307 6.9 101990 31
2010-04-22 09:06:50 51°33.207 2°55.899 -999 257 6.9 101980 31
2010-04-22 09:06:55 51°33.207 2°55.901 -999 306 6.9 101980 31
2010-04-22 09:07:00 51°33.207 2°55.903 -999 256 6.9 101980 31
2010-04-22 09:07:05 51°33.207 2°55.906 -999 306 6.9 101980 31
2010-04-22 09:07:10 51°33.207 2°55.908 -999 248 7 101980 31
2010-04-22 09:07:15 51°33.207 2°55.91 -999 306 7 101980 31
2010-04-22 09:07:20 51°33.208 2°55.913 -999 23 7 101980 31
2010-04-22 09:07:25 51°33.208 2°55.914 -999 306 7 101980 31
2010-04-22 09:07:30 51°33.208 2°55.917 -999 23 7 101980 31
2010-04-22 09:07:35 51°33.208 2°55.919 -999 306 7 101980 31
2010-04-22 09:07:40 51°33.208 2°55.921 -999 23 7 101990 31
2010-04-22 09:07:45 51°33.208 2°55.923 -999 306 7 101990 31
2010-04-22 09:07:50 51°33.208 2°55.926 -999 253 7 101980 31
2010-04-22 09:07:55 51°33.208 2°55.928 -999 306 7 101980 31
2010-04-22 09:08:00 51°33.209 2°55.93 -999 248 7 101980 31
2010-04-22 09:08:05 51°33.209 2°55.932 -999 283 7 101980 31
2010-04-22 09:08:10 51°33.209 2°55.934 -999 251 7 101990 31
2010-04-22 09:08:15 51°33.209 2°55.937 -999 306 7 101990 31
2010-04-22 09:08:20 51°33.209 2°55.938 -999 256 7 101980 31
2010-04-22 09:08:25 51°33.21 2°55.941 -999 306 7 101980 31
2010-04-22 09:08:30 51°33.21 2°55.942 -999 252 7 101970 31
2010-04-22 09:08:35 51°33.21 2°55.945 -999 306 7 101970 31
2010-04-22 09:08:40 51°33.21 2°55.946 -999 260 7.1 101990 30
2010-04-22 09:08:45 51°33.21 2°55.948 -999 306 7.1 101990 30
2010-04-22 09:08:50 51°33.211 2°55.95 -999 256 7.1 101990 31
2010-04-22 09:08:55 51°33.211 2°55.952 -999 306 7.1 101990 31
2010-04-22 09:09:00 51°33.211 2°55.954 -999 258 7.1 101990 31
2010-04-22 09:09:05 51°33.212 2°55.955 -999 306 7.1 101990 31
2010-04-22 09:09:11 51°33.212 2°55.958 -999 249 7.1 101990 30
2010-04-22 09:09:15 51°33.212 2°55.96 -999 306 7.1 101990 30
2010-04-22 09:09:20 51°33.212 2°55.961 -999 256 7.1 101980 31
2010-04-22 09:09:25 51°33.212 2°55.963 -999 307 7.1 101980 31
2010-04-22 09:09:30 51°33.213 2°55.965 -999 259 7.1 101980 31
2010-04-22 09:09:35 51°33.213 2°55.967 -999 306 7.1 101980 31
2010-04-22 09:09:40 51°33.213 2°55.969 -999 260 7.1 101980 31
2010-04-22 09:09:45 51°33.213 2°55.971 -999 306 7.1 101980 31
2010-04-22 09:09:50 51°33.214 2°55.973 -999 258 7.1 101980 31
2010-04-22 09:09:55 51°33.214 2°55.974 -999 306 7.1 101980 31
2010-04-22 09:10:00 51°33.214 2°55.977 -999 256 7.1 101980 30
2010-04-22 09:10:05 51°33.215 2°55.978 -999 283 7.1 101980 30
2010-04-22 09:10:10 51°33.215 2°55.98 -999 263 7.1 101980 31
2010-04-22 09:10:15 51°33.215 2°55.982 -999 307 7.1 101980 31
2010-04-22 09:10:20 51°33.215 2°55.984 -999 259 7.1 101980 30
2010-04-22 09:10:25 51°33.216 2°55.986 -999 306 7.1 101980 30
2010-04-22 09:10:30 51°33.216 2°55.987 -999 259 7.1 101990 31
2010-04-22 09:10:35 51°33.216 2°55.989 -999 306 7.1 101990 31
2010-04-22 09:10:40 51°33.217 2°55.99 -999 254 7.1 101980 31
2010-04-22 09:10:45 51°33.217 2°55.993 1.4 304 7.1 101980 31
2010-04-22 09:10:50 51°33.217 2°55.994 1 260 7.1 101980 31
2010-04-22 09:10:55 51°33.218 2°55.996 0.5 308 7.1 101980 31
2010-04-22 09:11:00 51°33.218 2°55.997 0.1 259 7.1 101990 32
2010-04-22 09:11:05 51°33.218 2°56 0.1 306 7.1 101990 32
2010-04-22 09:11:11 51°33.219 2°56.001 -999 258 7.2 101990 32
2010-04-22 09:11:15 51°33.219 2°56.003 -999 306 7.2 101990 32
2010-04-22 09:11:20 51°33.219 2°56.004 -999 254 7.2 101980 31
2010-04-22 09:11:25 51°33.219 2°56.006 -999 307 7.2 101980 31
2010-04-22 09:11:30 51°33.22 2°56.008 -999 251 7.2 101980 31
2010-04-22 09:11:35 51°33.22 2°56.01 -999 306 7.2 101980 31
2010-04-22 09:11:40 51°33.22 2°56.011 -999 255 7.2 101980 31
2010-04-22 09:11:45 51°33.221 2°56.013 -999 306 7.2 101980 31
2010-04-22 09:11:50 51°33.221 2°56.015 -999 255 7.2 101980 30
2010-04-22 09:11:55 51°33.222 2°56.016 -999 306 7.2 101980 30
2010-04-22 09:12:00 51°33.222 2°56.018 -999 260 7.2 101990 31
2010-04-22 09:12:05 51°33.222 2°56.019 -999 282 7.2 101990 31
2010-04-22 09:12:10 51°33.222 2°56.021 -999 256 7.2 101990 31
2010-04-22 09:12:15 51°33.223 2°56.023 -999 306 7.2 101990 31
2010-04-22 09:12:20 51°33.223 2°56.024 -999 257 7.2 101980 31
2010-04-22 09:12:25 51°33.224 2°56.026 -999 306 7.2 101980 31
2010-04-22 09:12:30 51°33.224 2°56.027 -999 265 7.2 101980 31
2010-04-22 09:12:35 51°33.224 2°56.029 -999 306 7.2 101980 31
2010-04-22 09:12:40 51°33.224 2°56.031 -999 269 7.2 101980 31
2010-04-22 09:12:45 51°33.225 2°56.033 -999 306 7.2 101980 31
2010-04-22 09:12:50 51°33.225 2°56.034 -999 26 7.2 101980 31
2010-04-22 09:12:55 51°33.225 2°56.036 -999 306 7.2 101980 31
2010-04-22 09:12:59 51°33.226 2°56.037 -999 266 7.2 101990 31
2010-04-22 09:13:05 51°33.226 2°56.039 -999 306 7.2 101990 31
2010-04-22 09:13:10 51°33.226 2°56.04 -999 254 7.2 101990 30
2010-04-22 09:13:15 51°33.227 2°56.042 -999 306 7.2 101990 30
2010-04-22 09:13:20 51°33.227 2°56.043 -999 257 7.2 101990 31
2010-04-22 09:13:25 51°33.228 2°56.045 -999 306 7.2 101990 31
2010-04-22 09:13:30 51°33.228 2°56.046 -999 260 7.2 101980 31
2010-04-22 09:13:35 51°33.228 2°56.047 -999 306 7.2 101980 31
2010-04-22 09:13:40 51°33.229 2°56.049 -999 262 7.2 101980 31
2010-04-22 09:13:45 51°33.229 2°56.05 -999 306 7.2 101980 31
2010-04-22 09:13:50 51°33.23 2°56.051 -999 265 7.2 101990 31
2010-04-22 09:13:55 51°33.23 2°56.053 -999 306 7.2 101990 31
2010-04-22 09:14:00 51°33.23 2°56.054 -999 266 7.2 101980 31
2010-04-22 09:14:05 51°33.231 2°56.055 -999 283 7.2 101980 31
2010-04-22 09:14:10 51°33.231 2°56.057 -999 263 7.2 101990 31
2010-04-22 09:14:15 51°33.232 2°56.058 -999 306 7.2 101990 31
2010-04-22 09:14:20 51°33.232 2°56.06 -999 262 7.2 101980 31
2010-04-22 09:14:25 51°33.233 2°56.061 -999 307 7.2 101980 31
2010-04-22 09:14:30 51°33.233 2°56.062 -999 270 7.2 101990 30
2010-04-22 09:14:35 51°33.234 2°56.063 -999 309 7.2 101990 30
2010-04-22 09:14:40 51°33.234 2°56.065 -999 257 7.2 101990 31
2010-04-22 09:14:45 51°33.234 2°56.066 -999 306 7.2 101990 31
2010-04-22 09:14:50 51°33.235 2°56.067 -999 250 7.2 101990 31
2010-04-22 09:14:55 51°33.235 2°56.069 -999 307 7.2 101990 31
2010-04-22 09:15:00 51°33.236 2°56.07 -999 255 7.3 101990 31
2010-04-22 09:15:05 51°33.236 2°56.071 -999 306 7.3 101990 31
2010-04-22 09:15:10 51°33.236 2°56.073 -999 256 7.3 101990 31
2010-04-22 09:15:15 51°33.237 2°56.074 -999 307 7.3 101990 31
2010-04-22 09:15:20 51°33.237 2°56.076 -999 257 7.3 101990 31
2010-04-22 09:15:25 51°33.238 2°56.077 -999 54 7.3 101990 31
2010-04-22 09:15:30 51°33.238 2°56.078 -999 23 7.3 101980 31
2010-04-22 09:15:35 51°33.239 2°56.079 -999 54 7.3 101980 31
2010-04-22 09:15:40 51°33.239 2°56.081 -999 23 7.2 101990 31
2010-04-22 09:15:45 51°33.239 2°56.082 -999 59 7.2 101990 31
2010-04-22 09:15:50 51°33.24 2°56.083 -999 24 7.3 101980 31
2010-04-22 09:15:55 51°33.24 2°56.085 -999 54 7.3 101980 31
2010-04-22 09:16:00 51°33.241 2°56.086 -999 23 7.3 101980 30
2010-04-22 09:16:05 51°33.241 2°56.087 -999 77 7.3 101980 30
2010-04-22 09:16:10 51°33.241 2°56.089 -999 262 7.3 101980 30
2010-04-22 09:16:15 51°33.242 2°56.09 -999 307 7.3 101980 30
2010-04-22 09:16:20 51°33.242 2°56.091 -999 268 7.3 101990 31
2010-04-22 09:16:25 51°33.242 2°56.092 -999 306 7.3 101990 31
2010-04-22 09:16:30 51°33.241 2°56.094 -999 256 7.3 101980 31
2010-04-22 09:16:35 51°33.241 2°56.096 -999 306 7.3 101980 31
2010-04-22 09:16:40 51°33.24 2°56.098 -999 23 7.3 101980 31
2010-04-22 09:16:45 51°33.239 2°56.1 -999 306 7.3 101980 31
2010-04-22 09:16:50 51°33.237 2°56.104 -999 23 7.3 101990 31
2010-04-22 09:16:55 51°33.236 2°56.107 -999 306 7.3 101990 31
2010-04-22 09:17:00 51°33.235 2°56.111 -999 23 7.3 101980 31
2010-04-22 09:17:05 51°33.234 2°56.115 -999 306 7.3 101980 31
2010-04-22 09:17:10 51°33.232 2°56.12 -999 23 7.3 101980 30
2010-04-22 09:17:15 51°33.231 2°56.125 -999 306 7.3 101980 30
2010-04-22 09:17:20 51°33.23 2°56.131 1.6 27 7.3 101990 31
2010-04-22 09:17:25 51°33.229 2°56.137 2 311 7.3 101990 31
2010-04-22 09:17:30 51°33.228 2°56.144 1.7 20 7.3 101990 31
2010-04-22 09:17:35 51°33.227 2°56.151 1.8 309 7.3 101990 31
2010-04-22 09:17:40 51°33.226 2°56.158 2.1 28 7.3 101980 32
2010-04-22 09:17:45 51°33.225 2°56.166 1.8 307 7.3 101980 32
2010-04-22 09:17:50 51°33.224 2°56.174 1.9 319 7.3 101980 30
2010-04-22 09:17:55 51°33.223 2°56.182 1.9 304 7.3 101980 30
2010-04-22 09:18:00 51°33.221 2°56.189 1.7 27 7.4 101980 31
2010-04-22 09:18:05 51°33.221 2°56.197 1.8 280 7.4 101980 31
2010-04-22 09:18:11 51°33.22 2°56.206 1.6 319 7.4 101980 30
2010-04-22 09:18:15 51°33.22 2°56.212 1.6 311 7.4 101980 30
2010-04-22 09:18:20 51°33.22 2°56.219 1.7 24 7.3 101980 31
2010-04-22 09:18:25 51°33.219 2°56.226 1.6 307 7.3 101980 31
2010-04-22 09:18:30 51°33.219 2°56.233 1.7 20 7.3 101980 31
2010-04-22 09:18:35 51°33.219 2°56.24 1.4 310 7.3 101980 31
2010-04-22 09:18:40 51°33.219 2°56.247 1.5 27 7.3 101980 31
2010-04-22 09:18:45 51°33.219 2°56.253 1.7 310 7.3 101980 31
2010-04-22 09:18:50 51°33.219 2°56.259 2 20 7.3 101980 31
2010-04-22 09:18:55 51°33.218 2°56.266 1.3 308 7.3 101980 31
2010-04-22 09:19:00 51°33.219 2°56.272 1.7 22 7.3 101980 30
2010-04-22 09:19:05 51°33.218 2°56.277 1.2 308 7.3 101980 30
2010-04-22 09:19:10 51°33.219 2°56.284 1.3 22 7.3 101980 29
2010-04-22 09:19:15 51°33.218 2°56.289 0.1 307 7.3 101980 29
2010-04-22 09:19:20 51°33.219 2°56.295 0.1 318 7.3 101980 32
2010-04-22 09:19:25 51°33.219 2°56.301 -999 306 7.3 101980 32
2010-04-22 09:19:30 51°33.219 2°56.306 -999 23 7.3 101970 31
2010-04-22 09:19:35 51°33.219 2°56.312 -999 306 7.3 101970 31
2010-04-22 09:19:40 51°33.22 2°56.318 -999 23 7.3 101960 31
2010-04-22 09:19:45 51°33.22 2°56.323 -999 306 7.3 101960 31
2010-04-22 09:19:50 51°33.22 2°56.328 -999 23 7.3 101980 29
2010-04-22 09:19:55 51°33.22 2°56.333 -999 306 7.3 101980 29
2010-04-22 09:20:00 51°33.221 2°56.338 -999 23 7.3 101980 30
2010-04-22 09:20:05 51°33.221 2°56.343 -999 283 7.3 101980 30
2010-04-22 09:20:10 51°33.222 2°56.348 -999 321 7.3 101980 31
2010-04-22 09:20:15 51°33.222 2°56.353 -999 306 7.3 101980 31
2010-04-22 09:20:20 51°33.222 2°56.358 -999 23 7.3 101980 31
2010-04-22 09:20:25 51°33.222 2°56.362 -999 306 7.3 101980 31
2010-04-22 09:20:30 51°33.223 2°56.367 0.1 23 7.3 101970 31
2010-04-22 09:20:35 51°33.223 2°56.372 0.7 308 7.3 101970 31
2010-04-22 09:20:40 51°33.224 2°56.377 0.1 22 7.3 101980 31
2010-04-22 09:20:45 51°33.224 2°56.381 0.1 306 7.3 101980 31
2010-04-22 09:20:50 51°33.225 2°56.385 -999 23 7.3 101980 32
2010-04-22 09:20:55 51°33.225 2°56.39 -999 306 7.3 101980 32
2010-04-22 09:21:00 51°33.225 2°56.394 -999 23 7.3 101980 31
2010-04-22 09:21:05 51°33.226 2°56.398 -999 307 7.3 101980 31
2010-04-22 09:21:10 51°33.226 2°56.403 -999 23 7.3 101980 31
2010-04-22 09:21:15 51°33.227 2°56.407 -999 306 7.3 101980 31
2010-04-22 09:21:20 51°33.227 2°56.411 -999 23 7.3 101980 31
2010-04-22 09:21:25 51°33.228 2°56.415 -999 306 7.3 101980 31
2010-04-22 09:21:30 51°33.228 2°56.419 -999 23 7.3 101970 31
2010-04-22 09:21:35 51°33.229 2°56.423 -999 306 7.3 101970 31
2010-04-22 09:21:40 51°33.229 2°56.427 -999 23 7.3 101980 31
2010-04-22 09:21:45 51°33.23 2°56.431 -999 306 7.3 101980 31
2010-04-22 09:21:50 51°33.23 2°56.434 -999 23 7.3 101990 31
2010-04-22 09:21:55 51°33.231 2°56.438 -999 306 7.3 101990 31
2010-04-22 09:22:00 51°33.231 2°56.442 -999 23 7.3 101980 31
2010-04-22 09:22:05 51°33.232 2°56.446 -999 283 7.3 101980 31
2010-04-22 09:22:10 51°33.232 2°56.449 -999 23 7.3 101980 31
2010-04-22 09:22:15 51°33.233 2°56.453 -999 306 7.3 101980 31
2010-04-22 09:22:20 51°33.233 2°56.456 -999 23 7.3 101980 31
2010-04-22 09:22:25 51°33.234 2°56.46 -999 306 7.3 101980 31
2010-04-22 09:22:30 51°33.234 2°56.463 -999 23 7.3 101980 30
2010-04-22 09:22:35 51°33.235 2°56.466 -999 306 7.3 101980 30
2010-04-22 09:22:40 51°33.235 2°56.469 -999 23 7.3 101980 30
2010-04-22 09:22:45 51°33.236 2°56.473 0.1 307 7.3 101980 30
2010-04-22 09:22:50 51°33.236 2°56.476 0.1 23 7.3 101980 31
2010-04-22 09:22:55 51°33.237 2°56.479 0.1 306 7.3 101980 31
2010-04-22 09:23:00 51°33.237 2°56.483 -999 23 7.3 101980 31
2010-04-22 09:23:05 51°33.238 2°56.486 -999 306 7.3 101980 31
2010-04-22 09:23:10 51°33.238 2°56.489 -999 23 7.3 101980 31
2010-04-22 09:23:15 51°33.238 2°56.492 -999 306 7.3 101980 31
2010-04-22 09:23:20 51°33.239 2°56.495 -999 23 7.3 101980 31
2010-04-22 09:23:25 51°33.24 2°56.498 -999 306 7.3 101980 31
2010-04-22 09:23:30 51°33.24 2°56.501 -999 23 7.3 101970 31
2010-04-22 09:23:35 51°33.24 2°56.503 -999 306 7.3 101970 31
2010-04-22 09:23:39 51°33.241 2°56.506 -999 320 7.3 101980 31
2010-04-22 09:23:45 51°33.241 2°56.509 1.4 301 7.3 101980 31
2010-04-22 09:23:50 51°33.241 2°56.512 0.2 22 7.3 101990 31
2010-04-22 09:23:55 51°33.242 2°56.515 0.1 306 7.3 101990 31
2010-04-22 09:24:00 51°33.242 2°56.517 -999 23 7.3 101970 31
2010-04-22 09:24:05 51°33.243 2°56.52 -999 306 7.3 101970 31
2010-04-22 09:24:10 51°33.243 2°56.523 -999 23 7.3 101980 31
2010-04-22 09:24:15 51°33.243 2°56.526 -999 306 7.3 101980 31
2010-04-22 09:24:20 51°33.244 2°56.528 -999 23 7.3 101980 31
2010-04-22 09:24:25 51°33.244 2°56.531 -999 306 7.3 101980 31
2010-04-22 09:24:30 51°33.244 2°56.533 -999 23 7.3 101980 31
2010-04-22 09:24:35 51°33.244 2°56.535 -999 306 7.3 101980 31
2010-04-22 09:24:40 51°33.245 2°56.538 -999 23 7.3 101980 31
2010-04-22 09:24:45 51°33.245 2°56.541 -999 306 7.3 101980 31
2010-04-22 09:24:50 51°33.246 2°56.543 -999 23 7.3 101980 31
2010-04-22 09:24:55 51°33.246 2°56.546 -999 306 7.3 101980 31
2010-04-22 09:25:00 51°33.246 2°56.548 -999 252 7.4 101980 31
2010-04-22 09:25:05 51°33.247 2°56.55 -999 282 7.4 101980 31
2010-04-22 09:25:10 51°33.247 2°56.553 -999 257 7.4 101980 30